Flag for Germany Weather past 2 weeks in Viersen, North Rhine-Westphalia, Germany

Now
70 °F

Clear.


Feels Like: 70 °F
Forecast: 48 / 62 °F
Wind: 10 mph from Southeast

Location: Monchengladbach Airport


UV Index: 0 (Low)

Visibility: 10 mi


Pressure: 29.65 "Hg

Humidity: 38%

Dew point: 43 °F

Location of ViersenLocation

Historic Weather in Viersen

°F

Viersen temperature yesterday

Maximum temperature yesterday: 63 °F (at 5:20 PM)
Minimum temperature yesterday: 41 °F (at 7:50 AM)
Average temperature yesterday: 56 °F

Past Weeks' High & Low Weather Summary

 TemperatureHumidityPressure
High72 °F (Apr 7, 3:50 PM)100% (Apr 6, 7:50 AM)30.45 "Hg (Apr 6, 7:50 AM)
Low32 °F (Apr 16, 7:50 AM)26% (Apr 17, 4:20 PM)29.65 "Hg (Apr 20, 3:50 PM)
Average55 °F65%30.08 "Hg
* Reported Apr 5 5:20 PM — Apr 20 5:50 PM, Viersen, Weather by CustomWeather, © 2014

Note: Actual official high and low records may vary slightly from our data, if they occured in-between our weather recording intervals... More about our weather records

Advertising

Historic Weather Conditions — Data for Previous 24 hours

 ConditionsComfort  
Time TempWeatherWind HumidityBarometerVisibility
5:50 PM
Apr 20
70 °FClear.13 mph35%29.65 "Hg10 mi
5:20 PM68 °FClear.13 mph40%29.65 "Hg10 mi
4:50 PM70 °FPassing clouds.10 mph38%29.65 "HgN/A
4:20 PM72 °FPassing clouds.12 mph36%29.65 "HgN/A
3:50 PM70 °FPassing clouds.14 mph35%29.65 "HgN/A
3:20 PM70 °FPassing clouds.10 mph40%29.68 "HgN/A
2:50 PM70 °FPassing clouds.12 mph40%29.68 "HgN/A
2:20 PM70 °FPassing clouds.13 mph40%29.68 "HgN/A
1:50 PM70 °FClear.16 mph40%29.68 "Hg10 mi
1:20 PM68 °FPassing clouds.13 mph49%29.68 "HgN/A
12:50 PM66 °FSunny.14 mph56%29.71 "Hg10 mi
12:20 PM66 °FPassing clouds.16 mph52%29.71 "HgN/A
11:50 AM66 °FPassing clouds.14 mph56%29.71 "HgN/A
11:20 AM64 °FPassing clouds.13 mph64%29.71 "HgN/A
10:50 AM63 °FPassing clouds.12 mph68%29.74 "HgN/A
10:20 AM61 °FPassing clouds.10 mph72%29.74 "HgN/A
9:50 AM59 °FPassing clouds.10 mph82%29.77 "HgN/A
9:20 AM55 °FPassing clouds.7 mph94%29.77 "HgN/A
8:50 AM55 °FPassing clouds.7 mph94%29.77 "HgN/A
8:20 AM54 °FPassing clouds.7 mph100%29.77 "HgN/A
7:50 AM54 °FPassing clouds.6 mph100%29.77 "HgN/A
8:20 PM
Apr 19
59 °FClear.10 mph59%29.92 "Hg10 mi
7:50 PM61 °FPassing clouds.14 mph52%29.92 "HgN/A
7:20 PM61 °FPassing clouds.15 mph48%29.89 "HgN/A
6:50 PM61 °FPassing clouds.13 mph52%29.89 "HgN/A
6:20 PM63 °FPassing clouds.14 mph49%29.92 "HgN/A
Weather by CustomWeather, © 2014

See weather overview